Weather observations for the past three days for
Akhiok
Imperial (Metric)
Date Time (akdt) Wind (mph) Vis. (mi.) Weather Sky Cond. Temperature (ºF) Relative Humidity Wind Chill (°F) Heat Index (°F) Pressure Precipitation (in)
Air Dwpt 6 hour altimeter (in) sea level (mb) 1 hr 3 hr 6 hr
Max. Min.
06 19:56 W 17 0.00 Fair CLR 0 0 0% 30.08 0.0
06 18:56 W 17 0.00 Fair CLR 0 0 0% 30.08 0.0
06 17:56 W 17 0.00 Fair CLR 0 0 0% 30.08 0.0
06 16:56 W 17 0.00 Fair CLR 0 0 0% 30.08 0.0
06 15:56 W 18 G 28 0.00 A Few Clouds FEW024 0 0 0% 30.08 0.0
06 14:56 W 22 G 29 0.00 Fair and Breezy CLR 0 0 0% 30.08 0.0
06 13:56 W 13 G 21 0.00 Fair CLR 0 0 0% 30.08 0.0
06 12:56 NW 12 0.00 Fair CLR 0 0 0% 30.06 0.0
06 11:56 NW 10 0.00 Fair CLR 0 0 0% 30.05 0.0
06 10:56 NW 16 G 20 0.00 Fair CLR 0 0 0% 30.04 0.0
06 09:56 NW 12 0.00 Partly Cloudy SCT021 0 0 0% 30.04 0.0
06 08:56 NW 7 0.00 Partly Cloudy SCT019 0 0 0% 30.03 0.0
06 07:56 Vrbl 6 0.00 Overcast OVC021 0 0 0% 30.01 0.0
06 06:56 NW 7 0.00 Mostly Cloudy FEW025 BKN036 0 0 0% 30 0.0
06 05:56 NW 13 0.00 Overcast OVC030 0 0 0% 29.99 0.0
06 04:56 NW 9 0.00 Overcast BKN012 OVC030 0 0 0% 29.99 0.0
06 03:56 NW 7 0.00 Overcast BKN032 OVC085 0 0 0% 29.98 0.0
06 02:56 NW 12 G 20 0.00 Overcast FEW013 OVC085 0 0 0% 29.97 0.0
06 01:56 Vrbl 3 0.00 Overcast OVC080 0 0 0% 29.96 0.0
06 00:56 Vrbl 5 0.00 Overcast SCT016 OVC080 0 0 0% 29.94 0.0
05 23:56 NW 10 0.00 Overcast BKN038 OVC075 0 0 0% 29.93 0.0
05 22:56 NW 8 0.00 Overcast FEW060 OVC075 0 0 0% 29.91 0.0
05 21:56 W 6 0.00 Overcast OVC060 0 0 0% 29.9 0.0
05 20:56 Vrbl 6 0.00 Overcast OVC080 0 0 0% 29.88 0.0
05 19:56 NW 29 G 38 0.00 Partly Cloudy and Windy SCT120 0 0 0% 29.84 0.0
05 18:56 NW 28 G 43 0.00 Mostly Cloudy and Windy BKN009 0 0 0% 29.82 0.0
05 17:56 NW 21 G 32 0.00 Overcast and Breezy BKN009 OVC014 0 0 0% 29.83 0.0
05 16:56 W 20 G 30 0.00 Overcast OVC014 0 0 0% 29.81 0.0
05 15:56 W 13 G 20 0.00 Overcast BKN021 OVC027 0 0 0% 29.8 0.0
05 14:56 NW 9 G 22 0.00 Overcast FEW018 OVC023 0 0 0% 29.78 0.0
05 13:56 W 14 0.00 Overcast FEW025 BKN045 OVC055 0 0 0% 29.77 0.0
05 12:56 W 16 0.00 Overcast BKN013 BKN037 OVC060 0 0 0% 29.75 0.0
05 11:56 W 9 0.00 Overcast OVC036 0 0 0% 29.72 0.0
05 10:56 W 13 G 16 0.00 Overcast OVC012 0 0 0% 29.7 0.0
05 09:56 W 13 0.00 Overcast OVC010 0 0 0% 29.68 0.0
05 08:56 W 12 0.00 Overcast OVC008 0 0 0% 29.66 0.0
05 07:56 W 8 0.00 Overcast OVC008 0 0 0% 29.63 0.0
05 06:56 W 9 0.00 Overcast OVC008 0 0 0% 29.61 0.0
05 05:56 NW 8 0.00 Overcast BKN010 OVC015 0 0 0% 29.58 0.0
05 04:56 NW 15 G 23 0.00 Overcast SCT028 BKN036 OVC070 0 0 0% 29.55 0.0
05 03:56 NW 16 G 23 0.00 Mostly Cloudy BKN070 0 0 0% 29.49 0.0
05 02:56 NW 12 0.00 Mostly Cloudy BKN019 BKN032 BKN070 0 0 0% 29.46 0.0
05 01:56 NW 5 0.00 Overcast OVC030 0 0 0% 29.44 0.0
05 00:56 Calm 0.00 Overcast OVC038 0 0 0% 29.41 0.0
04 23:56 E 5 0.00 Overcast BKN033 OVC055 0 0 0% 29.39 0.0
04 22:56 NE 6 0.00 Overcast OVC036 0 0 0% 29.37 0.0
04 21:56 SW 6 0.00 Overcast OVC027 0 0 0% 29.36 0.0
04 20:56 NW 12 0.00 Overcast OVC029 0 0 0% 29.35 0.0
04 19:56 N 3 0.00 Overcast OVC029 0 0 0% 29.35 0.0
04 18:56 E 10 G 16 0.00 Overcast OVC027 0 0 0% 29.35 0.0
04 17:56 E 12 0.00 Overcast OVC023 0 0 0% 29.36 0.0
04 16:56 E 15 0.00 Overcast OVC020 0 0 0% 29.38 0.0
04 15:56 E 17 G 22 0.00 Overcast BKN024 OVC030 0 0 0% 29.41 0.0
04 14:56 E 14 0.00 Overcast BKN015 OVC020 0 0 0% 29.43 0.0
04 13:56 E 16 0.00 Overcast OVC021 0 0 0% 29.46 0.0
04 12:56 E 15 0.00 Overcast BKN015 OVC021 0 0 0% 29.48 0.0
04 11:56 E 18 G 25 0.00 Overcast SCT018 OVC025 0 0 0% 29.5 0.0
04 10:56 E 17 0.00 Overcast BKN028 OVC040 0 0 0% 29.52 0.0
04 09:56 E 14 0.00 Overcast BKN021 OVC037 0 0 0% 29.55 0.0
04 08:56 E 17 G 24 0.00 Overcast FEW021 OVC039 0 0 0% 29.57 0.0
04 07:56 NE 18 0.00 Overcast SCT022 OVC037 0 0 0% 29.61 0.0
04 06:56 NE 20 G 28 0.00 Overcast OVC045 0 0 0% 29.64 0.0
04 05:56 NE 14 0.00 Overcast FEW017 BKN028 OVC090 0 0 0% 29.67 0.0
04 04:56 E 14 0.00 Overcast SCT017 BKN026 OVC045 0 0 0% 29.73 0.0
04 03:56 E 14 0.00 Overcast SCT015 OVC021 0 0 0% 29.78 0.0
04 02:56 E 15 0.00 Overcast FEW013 OVC019 0 0 0% 29.82 0.0
04 01:56 E 10 0.00 Overcast OVC011 0 0 0% 29.87 0.0
04 00:56 E 12 0.00 Overcast OVC007 0 0 0% 29.88 0.0
03 23:56 E 12 0.00 Overcast OVC009 0 0 0% 29.89 0.0
03 22:56 E 14 0.00 Overcast OVC011 0 0 0% 29.88 0.0
03 21:56 E 9 0.00 Overcast OVC011 0 0 0% 29.88 0.0
03 20:56 E 12 0.00 Overcast OVC011 0 0 0% 29.88 0.0
Date Time (akdt) Wind (mph) Vis. (mi.) Weather Sky Cond. Air Dwpt Max. Min. Relative Humidity Wind Chill (°F) Heat Index (°F) altimeter (in) sea level (mb) 1 hr 3 hr 6 hr
6 hour
Temperature (ºF) Pressure Precipitation (in)